FENGYUN 1C DEB, 30127

Orbit data source: Space-Track

FENGYUN 1C DEB, 30127 is space debris in SSO originally from a launch on Mon, 10 May 1999 UTC launched from the Taiyaun Space Center, China (TSC). Fengyun 1C debris stems from the Chinese weather satellite Fengyun-1C, which was intentionally destroyed by a Chinese anti-satellite missile in 2007. This event dramatically increased the amount of space debris, with thousands of trackable fragments posing hazards to satellites and human spaceflight. The Fengyun 1C debris cloud has become a focal point in discussions about space sustainability and the need for international regulations to prevent the creation of new debris.

Loading next visibility...
Identifier
30127, 1999-025SG
Orbit
SSO
Country
Flag of CNCN / PRC
Related business
Manufacturer
Unknown
Mission
Spacecraft
Bus & Motor
Unknown
Mass
Unknown
Launch date (UTC)
1999-05-10 (27 years ago)
Launch vehicle
Unknown
Launch site
Taiyaun Space Center, China (TSC)
Object type
Payload
Rocket body
Debris
Shape & HBR
Unknown shape, 0.1 m
Radar Cross Section
Medium (>0.1 m² and <1 m²)

Expand to show TLE details & history
Last TLE update: 1 day ago

TLE from 1 day ago
0 FENGYUN 1C DEB
1 30127U 99025SG  26253.50978316  .00003877  00000-0  11567-2 0  9992
2 30127  98.1936 103.7359 0082540 341.3082  18.5081 14.41599486 11465
Epoch: 2026-09-10T12:14Z
TLE epoch observation values (Epoch: 2026-09-10T12:14:05.265Z)
Latitude
-0.00003°
Longitude
-69.3325°
Altitude
700.399 km
Speed
7.535 km/s
True Right ascension
06h 54m 56s
True Declination
0° 00' 00"
Sunlit
Object was in daylight at epoch
Visualization orbit readout
Latitude
Unknown
Longitude
Unknown
Altitude
Unknown
Speed
Unknown
Apparent Right ascension
Unknown
Apparent Declination
Unknown
Sunlit
N/A
Visualization observer readout
Local Sidereal Time
05:40:01
Azimuth
Unknown
Elevation
Unknown
Doppler factor
Unknown
Orbital elements
Apogee altitude
809.162 km
Perigee altitude
691.486 km
Semi-major axis
7,128.461 km
Eccentricity
0.00825
Inclination
98.1936°
RAAN
103.7359°
Arg. of periapsis
341.3082°
True anomaly
18.81131°
Mean anomaly
18.5081°
Eccentric anomaly
18.65941°
Mean motion
3.6062 °/min
Orbital period
99.83 mins
BSTAR
0.0011567
Loading maneuver chart data...
Computing Atmospheric mass density...
Loading historical data...
Loading historical data...
Loading historical data...
Loading historical data...
Loading historical data...
Loading historical data...
Loading historical data...

Documentation

Showing up to 5 results
|